Probability
0 0 0 0 0 0 0 0 0 0 0 0 0 0 0 0 0 0 0 0 0 0 0 0 0 0 0 0 0 0 0 0 0 0 0 0 0 0 0 0 0 0 0 0
0 0 0 0 0 0 0 0 0 0 0 0 0 0 0 0 0 0 0 0 0 0 0 0 0 0 0 0 0 0 0 0 0 0 0 0 0 0 0 0 0 0 0 0
0 0 0 0 0 0 0 0 0 0 0 0 0 0 0 0 0 0 0 0 0 0 0 0 0 0 0 0 0 0 0 0 0 0 0 0 0 0 0 0 0 0 0 0
0 0 0 0 0 0 0 0 0 0 0 0 0 0 0 0 0 0 0 0 0 0 0 0 0 0 0 0 0 0 0 0 0 0 0 0 0 0 0 0 0 0 0 0
0 0 0 0 0 0 0 0 0 0 0 0 0 0 0 0 0 0 0 0 0 0 0 0 0 0 0 0 0 0 0 0 0 0 0 0 0 0 0 0 0 0 0 0
0 0 0 0 0 0 0 0 0 0 0 0 0 0 0 0 0 0 0 0 0 0 0 0 0 0 0 0 0 0 0 0 0 0 0 0 0 0 0 0 0 0 0 0
0 0 0 0 0 0 0 0 0 0 0 0 0 0 0 0 0 0 0 0 0 0 0 0 0 0 0 0 0 0 0 0 0 0 0 0 0 0 0 0 0 0 0 0
0 0 0 0 0 0 0 0 0 0 0 0 0 0 0 0 0 0 0 0 0 0 0 0 0 0 0 0 0 0 0 0 0 0 0 0 0 0 0 0 0 0 0 0
0 0 0 0 0 0 0 0 0 0 0 0 0 0 0 0 0 0 0 0 0 0 0 0 0 0 0 0 0 0 0 0 0 0 0 0 0 0 0 0 0 0 0 0
0 0 0 0 0 0 0 0 0 0 0 0 0 0 0 0 0 0 0 0 0 0 0 0 0 0 0 0 0 0 0 0 0 0 0 0 0 0 0 0 0 0 0 0
0 0 0 0 0 0 0 0 0 0 0 0 0 0 0 0 0 0 0 0 0 0 0 0 0 0 0 0 0 0 0 0 0 0 0 0 0 0 0 0 0 0 0 0
0 0 0 0 0 0 0 0 0 0 0 0 0 0 0 0 0 0 0 0 0 0 0 0 0 0 0 0 0 0 0 0 0 0 0 0 0 0 0 0 0 0 0 0
0 0 0 0 0 0 0 0 0 0 0 0 0 0 0 0 0 0 0 0 0 0 0 0 0 0 0 0 0 0 0 0 0 0 0 0 0 0 0 0 0 0 0 0
0 0 0 0 0 0 0 0 0 0 0 0 0 0 0 0 0 0 0 0 0 0 0 0 0 0 0 0 0 0 0 0 0 0 0 0 0 0 0 0 0 0 0 0
0 0 0 0 0 0 0 0 0 0 0 0 0 0 0 0 0 0 0 0 0 0 0 0 0 0 0 0 0 0 0 0 0 0 0 0 0 0 0 0 0 0 0 0
0 0 0 0 0 0 0 0 0 0 0 0 0 0 0 0 0 0 0 0 0 0 0 0 0 0 0 0 0 0 0 0 0 0 0 0 0 0 0 0 0 0 0 0
0 0 0 0 0 0 0 0 0 0 0 0 0 0 0 0 0 0 0 0 0 0 0 0 0 0 0 0 0 0 0 0 0 0 0 0 0 0 0 0 0 0 0 0
0 0 0 0 0 0 0 0 0 0 0 0 0 0 0 0 0 0 0 0 0 0 0 0 0 0 0 0 0 0 0 0 0 0 0 0 0 0 0 0 0 0 0 0
0 0 0 0 0 0 0 0 0 0 0 0 0 0 0 0 0 0 0 0 0 0 0 0 0 0 0 0 0 0 0 0 0 0 0 0 0 0 0 0 0 0 0 0
0 0 0 0 0 0 0 0 0 0 0 0 0 0 0 0 0 0 0 0 0 0 0 0 0 0 0 0 0 0 0 0 0 0 0 0 0 0 0 0 0 0 0 0
0 0 0 0 0 0 0 0 0 0 0 0 0 0 0 0 0 0 0 0 0 0 0 0 0 0 0 0 0 0 0 0 0 0 0 0 0 0 0 0 0 0 0 0
0 0 0 0 0 0 0 0 0 0 0 0 0 0 0 0 0 0 0 0 0 0 0 0 0 0 0 0 0 0 0 0 0 0 0 0 0 0 0 0 0 0 0 0
0 0 0 0 0 0 0 0 0 0 0 0 0 0 0 0 0 0 0 0 0 0 0 0 0 0 0 0 0 0 0 0 0 0 0 0 0 0 0 0 0 0 0 0
0 0 0 0 0 0 0 0 0 0 0 0 0 0 0 0 0 0 0 0 0 0 0 0 0 0 0 0 0 0 0 0 0 0 0 0 0 0 0 0 0 0 0 0
0 0 0 0 0 0 0 0 0 0 0 0 0 0 0 0 0 0 0 0 0 0 0 0 0 0 0 0 0 0 0 0 0 0 0 0 0 0 0 0 0 0 0 0
0 0 0 0 0 0 0 0 0 0 0 0 0 0 0 0 0 0 0 0 0 0 0 0 0 0 0 0 0 0 0 0 0 0 0 0 0 0 0 0 0 0 0 0
Height
5854 5855 5854 5854 5854 5855 5855 5855 5855 5856 5856 5857 5857 5858 5859 5860 5861 5862 5863 5864 5865 5866 5868 5869 5871 5872 5874 5875 5876 5877 5878 5879 5880 5881 5881 5881 5881 5881 5880 5879 5878 5877 5876 5875
5854 5854 5853 5853 5853 5853 5853 5854 5854 5854 5855 5855 5856 5857 5857 5858 5859 5860 5861 5862 5863 5865 5866 5868 5869 5871 5872 5874 5875 5876 5877 5878 5879 5879 5880 5880 5880 5880 5879 5879 5878 5877 5876 5875
5853 5853 5852 5852 5852 5852 5852 5853 5853 5854 5854 5854 5855 5856 5856 5857 5857 5858 5859 5860 5862 5863 5865 5866 5868 5869 5871 5872 5873 5874 5876 5877 5877 5878 5879 5879 5879 5879 5878 5878 5877 5877 5876 5874
5851 5851 5851 5851 5851 5851 5851 5851 5852 5852 5853 5853 5854 5854 5855 5855 5856 5856 5857 5859 5860 5862 5863 5864 5866 5868 5869 5870 5872 5873 5874 5875 5876 5877 5878 5878 5878 5878 5878 5877 5877 5876 5875 5874
5850 5850 5850 5850 5850 5850 5850 5850 5851 5851 5852 5852 5853 5853 5854 5853 5854 5855 5856 5857 5858 5860 5861 5863 5864 5866 5867 5869 5870 5872 5873 5874 5875 5876 5876 5877 5877 5877 5877 5876 5876 5875 5874 5873
5849 5849 5849 5849 5849 5849 5849 5850 5850 5851 5851 5852 5852 5852 5853 5852 5853 5853 5854 5855 5856 5858 5860 5861 5863 5864 5866 5867 5868 5870 5871 5872 5873 5874 5875 5875 5875 5876 5876 5875 5875 5874 5873 5873
5848 5848 5848 5848 5848 5849 5849 5850 5850 5850 5850 5851 5851 5850 5852 5851 5851 5852 5852 5854 5855 5856 5858 5859 5861 5862 5864 5865 5867 5868 5870 5871 5872 5873 5873 5874 5874 5874 5874 5874 5874 5873 5873 5872
5846 5847 5847 5847 5848 5848 5848 5849 5850 5850 5849 5850 5849 5849 5851 5850 5850 5850 5851 5852 5853 5855 5856 5858 5859 5860 5862 5864 5865 5866 5868 5869 5870 5871 5872 5872 5872 5872 5873 5873 5872 5872 5871 5871
5844 5845 5845 5846 5846 5847 5847 5848 5848 5848 5848 5848 5848 5849 5849 5849 5849 5849 5849 5851 5852 5853 5854 5856 5857 5859 5860 5862 5863 5865 5866 5867 5868 5869 5870 5870 5871 5871 5871 5871 5871 5871 5870 5870
5842 5843 5844 5844 5845 5845 5846 5846 5847 5847 5847 5847 5847 5848 5849 5848 5848 5848 5849 5849 5850 5851 5853 5854 5855 5857 5858 5860 5861 5862 5864 5865 5866 5867 5868 5868 5869 5869 5869 5869 5869 5869 5869 5868
5840 5841 5842 5842 5843 5843 5844 5845 5845 5845 5846 5846 5846 5849 5847 5847 5847 5848 5848 5848 5849 5850 5851 5852 5854 5855 5856 5858 5859 5861 5862 5863 5864 5865 5865 5866 5866 5867 5867 5867 5867 5867 5867 5866
5838 5839 5840 5841 5842 5842 5842 5843 5843 5844 5844 5844 5845 5849 5846 5846 5846 5846 5846 5847 5848 5849 5850 5851 5852 5853 5854 5856 5857 5858 5860 5861 5861 5862 5863 5863 5864 5864 5865 5865 5865 5865 5865 5864
5835 5837 5837 5838 5841 5840 5840 5841 5841 5842 5843 5843 5843 5847 5844 5844 5844 5844 5845 5845 5846 5847 5848 5849 5850 5851 5853 5854 5855 5856 5857 5858 5859 5859 5860 5861 5861 5861 5862 5862 5862 5862 5862 5862
5832 5834 5836 5837 5837 5838 5838 5839 5839 5840 5840 5841 5841 5842 5843 5842 5843 5843 5843 5844 5844 5845 5846 5847 5848 5849 5850 5852 5853 5854 5855 5855 5856 5856 5857 5858 5858 5858 5859 5859 5859 5859 5859 5858
5828 5830 5831 5833 5834 5835 5836 5836 5837 5837 5838 5839 5839 5840 5841 5841 5841 5841 5841 5842 5842 5843 5844 5845 5846 5847 5848 5849 5850 5851 5852 5852 5853 5853 5854 5855 5855 5855 5856 5856 5856 5856 5855 5855
5825 5826 5828 5830 5831 5832 5832 5833 5834 5835 5835 5836 5837 5838 5838 5838 5839 5839 5839 5840 5840 5841 5842 5843 5844 5845 5846 5847 5848 5848 5849 5849 5850 5850 5851 5851 5852 5852 5852 5852 5852 5852 5852 5851
5821 5823 5824 5826 5827 5828 5830 5831 5831 5832 5833 5834 5834 5836 5836 5836 5836 5837 5837 5837 5838 5839 5839 5840 5841 5842 5843 5844 5845 5845 5846 5846 5847 5847 5847 5848 5848 5848 5848 5848 5848 5848 5847 5847
5817 5819 5820 5822 5824 5825 5829 5828 5829 5829 5830 5831 5831 5832 5833 5833 5834 5834 5835 5835 5836 5836 5837 5838 5839 5840 5840 5841 5842 5842 5842 5843 5843 5844 5844 5844 5844 5844 5844 5844 5844 5843 5843 5843
5812 5814 5816 5818 5819 5821 5824 5825 5825 5826 5827 5828 5828 5829 5830 5830 5831 5832 5832 5833 5833 5834 5835 5836 5836 5837 5837 5838 5838 5839 5839 5839 5839 5840 5840 5840 5840 5840 5840 5840 5839 5839 5838 5838
5807 5809 5811 5813 5814 5816 5821 5821 5821 5823 5824 5825 5825 5826 5826 5827 5829 5830 5829 5830 5830 5831 5832 5833 5833 5834 5834 5834 5835 5835 5835 5835 5836 5836 5836 5836 5836 5836 5836 5835 5835 5834 5834 5833
5800 5803 5805 5807 5809 5811 5815 5816 5818 5820 5822 5822 5822 5822 5823 5824 5826 5826 5826 5827 5827 5828 5829 5829 5830 5830 5831 5831 5831 5831 5832 5832 5832 5832 5832 5832 5831 5831 5831 5830 5830 5829 5828 5827
5795 5797 5800 5802 5804 5809 5810 5812 5814 5816 5817 5817 5818 5819 5820 5821 5821 5822 5823 5823 5824 5825 5825 5826 5826 5827 5827 5827 5828 5828 5828 5828 5827 5827 5827 5827 5827 5826 5826 5825 5824 5823 5822 5822
5788 5792 5794 5797 5801 5803 5805 5807 5809 5810 5812 5813 5814 5815 5816 5817 5817 5818 5819 5819 5820 5821 5821 5822 5822 5823 5823 5823 5823 5823 5823 5823 5823 5823 5822 5822 5822 5821 5820 5820 5819 5818 5817 5816
5782 5785 5788 5790 5794 5797 5800 5802 5804 5805 5807 5808 5809 5810 5812 5812 5813 5814 5814 5815 5816 5816 5817 5817 5818 5818 5818 5819 5819 5819 5818 5818 5818 5818 5817 5817 5816 5815 5814 5814 5813 5812 5811 5810
5775 5778 5781 5784 5788 5791 5793 5796 5798 5800 5801 5803 5804 5805 5806 5808 5808 5809 5810 5811 5811 5811 5812 5812 5813 5813 5813 5813 5813 5813 5813 5813 5812 5812 5811 5811 5810 5809 5809 5808 5807 5806 5805 5803
5768 5771 5774 5778 5782 5785 5788 5790 5792 5794 5796 5797 5799 5800 5801 5802 5803 5804 5804 5805 5806 5806 5807 5807 5807 5807 5808 5808 5808 5808 5807 5807 5807 5806 5806 5805 5804 5803 5803 5802 5801 5799 5798 5797
Wind_Speed
3 3 4 5 5 6 6 5 4 5 6 6 7 8 8 8 8 9 9 9 9 9 9 9 9 8 8 8 8 7 7 6 5 4 3 2 2 1 1 1 2 3 3 3
3 3 3 4 5 5 5 5 4 5 5 6 7 8 8 8 8 8 9 9 10 10 10 10 10 9 9 8 8 7 7 6 6 5 4 3 3 2 1 1 2 2 2 3
3 2 2 3 4 4 4 5 4 3 5 6 6 7 7 7 7 8 8 9 10 9 10 11 10 10 9 8 8 6 7 7 6 6 5 4 4 3 2 1 1 1 2 3
3 2 2 2 3 3 4 4 4 3 4 5 5 5 5 6 6 6 8 9 9 10 10 10 10 10 10 9 8 7 7 7 7 6 5 5 4 3 2 1 1 2 2 3
4 3 3 3 2 3 3 3 4 3 3 3 4 4 4 4 5 5 7 8 9 9 10 9 10 9 9 10 9 8 8 8 8 7 6 5 5 4 3 2 2 2 2 2
4 4 4 3 2 3 3 3 3 4 4 3 3 3 4 4 5 6 7 8 8 9 10 10 10 9 10 11 10 9 8 8 8 7 6 5 5 5 4 4 3 4 3 3
5 5 4 4 3 3 4 4 4 4 4 3 3 3 2 4 5 6 7 8 8 9 10 10 10 9 10 11 11 10 9 8 8 8 6 5 5 5 4 4 4 4 3 3
6 6 5 5 4 4 5 4 4 4 4 4 4 3 3 3 4 5 6 7 8 9 10 10 10 9 10 12 12 11 10 9 9 8 7 6 6 5 5 5 4 4 3 3
6 6 6 6 5 5 6 6 6 5 4 4 4 4 4 4 4 4 5 7 8 9 9 9 10 10 11 12 12 11 10 9 10 9 7 7 7 7 6 5 5 5 5 4
7 7 7 7 7 6 7 7 6 6 5 5 5 4 4 4 4 4 4 6 7 8 9 9 10 10 11 11 11 11 10 10 9 10 9 8 7 7 7 7 6 6 6 6
8 8 8 7 7 6 7 8 7 6 6 6 5 4 4 4 4 5 5 5 7 8 9 10 10 9 10 11 11 11 11 10 10 10 10 9 9 9 9 8 7 7 7 7
9 9 9 8 7 7 7 8 8 7 6 6 6 5 5 5 4 4 4 5 7 8 9 9 9 9 9 10 10 11 11 11 11 11 11 11 10 10 9 9 9 8 8 8
11 10 10 10 9 9 8 9 9 9 9 8 7 6 5 4 4 4 4 5 7 8 8 8 9 10 10 10 10 11 11 11 12 12 12 12 11 10 10 9 9 9 10 10
13 12 12 11 9 9 9 9 9 9 9 9 8 7 5 5 4 4 4 5 7 8 8 9 10 10 9 9 10 10 11 11 12 12 12 12 12 11 11 11 11 11 11 12
14 13 13 12 11 11 10 10 9 9 9 10 8 7 6 6 5 5 5 6 7 7 8 9 10 10 9 9 10 10 10 11 11 12 12 12 12 12 11 12 12 12 13 13
16 15 14 13 13 12 12 11 10 10 9 9 9 7 7 7 6 6 6 6 7 7 8 9 10 10 10 10 10 10 10 11 11 11 12 13 13 13 12 12 13 14 14 14
18 17 16 15 14 14 13 11 11 10 9 9 9 8 7 7 7 7 6 6 7 7 8 9 10 10 10 10 10 11 11 11 11 11 12 13 14 14 14 14 14 15 15 15
18 18 18 17 16 16 13 12 12 12 11 10 9 9 9 8 9 8 7 7 7 8 8 9 10 11 11 11 10 11 11 12 12 12 13 13 14 15 15 15 15 15 16 16
20 20 19 19 18 17 15 14 13 13 12 12 11 10 9 9 9 8 8 8 9 9 9 10 10 11 11 11 11 11 12 13 13 14 14 14 15 15 16 16 16 16 17 17
23 22 21 20 19 19 16 15 14 14 14 12 12 12 10 9 8 8 9 10 10 10 10 10 10 10 11 11 11 12 12 13 14 14 15 15 15 15 15 16 17 18 18 18
25 24 23 22 21 19 17 16 16 16 13 13 12 12 11 10 9 10 10 10 10 10 10 10 10 10 11 11 11 12 12 13 14 14 15 15 16 16 17 17 18 19 19 19
26 25 24 24 23 20 17 17 16 15 13 13 13 12 12 11 12 11 11 11 12 12 12 12 12 12 12 12 13 13 13 14 14 15 15 16 17 18 18 19 19 19 19 20
28 27 26 25 23 21 19 18 17 16 15 15 14 13 13 12 13 13 13 13 13 13 13 13 14 14 14 14 14 15 15 15 15 15 16 17 18 19 20 20 20 20 20 21
28 27 27 27 25 23 21 20 18 17 16 15 15 15 14 14 14 14 14 14 14 14 15 15 15 15 15 15 15 16 16 17 17 17 17 18 19 20 20 20 21 21 21 22
29 29 29 28 26 24 23 21 20 19 18 17 17 17 16 16 16 16 15 15 15 15 16 16 16 16 17 17 17 17 18 18 19 19 19 19 20 21 21 21 21 22 22 23
29 30 30 28 26 26 24 22 21 21 20 19 18 18 18 17 18 18 17 17 17 17 17 17 17 18 18 18 18 18 18 19 19 20 20 20 21 21 22 22 23 23 24 24
Wind_Direction
267 264 247 239 232 236 242 252 260 250 240 229 231 232 228 227 226 224 224 222 217 221 218 208 205 208 207 210 216 216 215 216 217 225 229 232 245 267 295 351 1 9 15 16
264 258 253 241 238 240 239 245 256 252 232 224 225 228 224 221 220 221 219 215 210 215 214 207 204 205 209 211 209 211 210 214 222 225 225 225 236 252 285 343 355 2 4 5
269 246 231 232 230 232 233 236 243 239 229 223 229 224 220 214 212 215 213 211 210 211 209 207 203 203 203 202 204 211 212 218 222 222 223 225 230 235 266 290 326 339 350 355
256 246 231 238 233 232 222 225 224 220 232 234 232 220 216 210 208 208 206 210 210 211 207 204 201 202 202 201 203 215 215 219 221 220 224 228 228 235 246 260 286 320 341 351
248 249 246 244 234 223 221 219 209 203 211 235 238 226 206 214 208 201 200 205 205 206 202 200 204 208 209 204 204 212 214 218 216 216 222 227 231 237 235 251 272 297 325 339
239 232 234 241 229 222 223 212 207 203 216 244 228 219 206 208 199 198 201 201 202 205 204 204 206 213 213 207 205 207 210 215 214 211 217 225 231 234 239 255 267 282 300 313
231 223 219 220 221 221 218 211 201 206 215 218 202 197 197 203 197 198 197 200 203 206 204 207 211 213 209 204 202 202 208 215 215 214 219 223 229 232 243 257 267 275 292 302
230 218 218 218 220 217 213 214 213 220 225 218 202 192 187 194 191 197 199 204 206 202 200 205 210 211 209 207 205 206 211 215 217 221 229 233 233 236 241 250 262 265 266 284
233 224 223 220 219 220 221 220 224 226 228 223 209 199 195 194 188 192 202 205 206 209 210 210 213 217 211 208 208 210 216 220 221 225 233 240 241 240 239 245 256 260 263 273
234 225 224 225 225 224 220 219 221 223 233 237 230 220 204 198 198 198 203 203 207 213 214 213 212 213 210 210 209 214 221 227 227 228 234 241 244 242 242 247 257 263 266 273
231 229 222 227 230 227 221 226 228 233 241 251 258 224 207 210 214 214 213 210 203 208 212 211 212 213 211 211 212 218 222 229 229 231 236 240 243 245 246 251 257 263 269 274
227 229 225 226 228 226 224 226 230 235 238 249 258 244 234 232 227 218 218 212 206 207 212 214 214 211 211 213 215 221 225 232 233 233 236 239 245 248 247 254 255 261 268 273
225 227 226 226 224 225 229 231 237 241 246 251 260 251 246 247 230 215 221 221 217 213 219 221 220 219 224 223 223 226 230 236 236 236 239 243 247 245 247 256 257 261 267 272
232 230 231 233 233 234 238 241 245 246 248 253 259 260 260 256 247 237 234 230 227 223 223 223 220 224 227 227 229 232 236 240 242 242 240 241 245 246 250 255 259 263 267 270
230 232 231 232 235 239 239 241 245 248 251 254 256 257 258 262 258 255 254 238 229 228 227 227 225 226 230 234 236 238 241 243 245 244 241 242 245 248 255 259 261 264 268 271
229 231 234 234 236 240 241 241 243 244 247 253 254 253 256 259 261 264 262 249 239 232 231 232 227 231 232 235 239 243 246 248 247 246 244 245 249 253 259 262 264 265 267 271
230 233 234 235 237 237 237 239 243 245 251 256 255 257 257 260 261 263 256 250 244 239 237 232 231 239 238 238 241 247 248 250 250 249 249 251 253 256 260 264 267 269 269 272
232 234 235 236 237 237 235 240 244 248 250 255 259 262 260 260 257 256 252 245 248 250 245 238 239 241 243 243 246 250 251 252 253 253 254 257 258 259 261 266 269 271 271 273
234 235 236 238 238 237 235 237 242 246 250 256 264 266 261 257 250 247 248 246 249 252 249 245 245 247 246 247 249 251 253 255 256 255 257 261 264 265 266 267 269 271 273 274
233 234 236 237 239 238 235 238 243 245 247 254 262 265 260 256 255 252 252 251 252 256 253 248 247 248 250 252 252 254 257 258 259 258 260 264 267 268 270 271 271 272 274 278
230 233 234 236 240 241 237 238 242 244 249 254 260 265 261 257 257 254 253 252 254 255 254 252 251 253 255 257 260 261 260 263 263 262 262 264 267 269 271 274 276 276 277 278
230 232 234 237 240 240 240 242 245 249 250 253 256 261 260 258 258 257 253 253 253 253 254 255 257 258 257 259 262 264 264 265 267 267 265 266 267 271 274 277 279 280 280 280
232 234 235 239 241 240 241 245 248 248 250 253 258 263 264 260 259 260 257 258 258 259 259 258 261 261 260 261 263 265 265 267 268 269 269 270 272 275 276 277 279 280 281 282
232 234 236 239 241 242 245 246 247 250 253 256 259 262 264 262 260 260 259 260 261 263 264 264 263 263 262 264 264 266 268 269 271 270 272 273 274 276 278 279 281 282 283 283
232 234 236 238 239 240 244 246 247 250 253 254 257 261 262 260 259 260 261 261 263 265 265 266 266 265 266 266 266 267 269 270 272 273 273 275 277 278 279 280 282 284 284 284
232 234 236 237 238 240 242 243 246 248 251 254 257 260 259 259 259 261 261 261 262 264 265 266 268 268 268 269 269 270 270 271 272 275 275 276 279 280 281 280 281 283 285 285